Hattiesburg, MS

1:59 PM CDT on March 26, 2017 (GMT -0500)
Chain Municipal

Weather History for KHBG - December, 2011

Change the Weather History Date:

Tuesday, December 13, 2011

  Actual Average Record
Temperature  
Mean Temperature 54 °F 51 °F  
Max Temperature 59 °F 62 °F 81 °F (2015)
Min Temperature 49 °F 40 °F 7 °F (1962)
Degree Days  
Heating Degree Days 11 15  
Month to date heating degree days 206 177  
Since 1 July heating degree days 570 505  
Cooling Degree Days 0 0  
Month to date cooling degree days 2 12  
Year to date cooling degree days 2766 2402  
Growing Degree Days 2 (Base 50)    
Moisture  
Dew Point 50 °F    
Average Humidity 87    
Maximum Humidity 93    
Minimum Humidity 80    
Precipitation  
Precipitation 0.00 in 0.15 in 2.97 in (2001)
Month to date precipitation 0.82 2.09  
Year to date precipitation 53.72 56.35  
Sea Level Pressure  
Sea Level Pressure 30.38 in    
Wind  
Wind Speed 3 mph (East)    
Max Wind Speed 9 mph    
Max Gust Speed 12 mph    
Visibility 6 miles    
Events      
T = Trace of Precipitation, MM = Missing Value Source: NWS Daily Summary

Daily Weather History Graph

Daily Weather History Graph

Search for Another Location

Airport or City:

Trip Planner

Search our weather history database for the weather conditions in past years. The results will help you decide how hot, cold, wet, or windy it might be!

Date:

Astronomy

Dec. 13, 2011 Rise Set
Actual Time 6:46 AM CST 4:55 PM CST
Civil Twilight 6:20 AM CST 5:22 PM CST
Nautical Twilight 5:49 AM CST 5:52 PM CST
Astronomical Twilight 5:20 AM CST 6:21 PM CST
Moon 8:02 PM CST (12/13) 9:02 AM CST (12/13)
Length of Visible Light 11h 02m
Length of Day
10h 08m
Waning Gibbous, 90% of the Moon is Illuminated
Dec 13
Waning Gibbous
Dec 17
Last Quarter
Dec 24
New
Jan 1
First Quarter
Jan 9
Full

Hourly Weather History & Observations

Time (CST) Temp. Dew Point Humidity Pressure Visibility Wind Dir Wind Speed Gust Speed Precip Events Conditions
12:53 AM 53.1 °F 48.0 °F 83% 30.37 in 10.0 mi East 5.8 mph - N/A   Overcast
1:21 AM 53.6 °F 48.2 °F 82% 30.37 in 10.0 mi ESE 4.6 mph - N/A   Overcast
1:53 AM 51.1 °F 46.9 °F 86% 30.37 in 10.0 mi Calm Calm - N/A   Overcast
2:20 AM 51.8 °F 48.2 °F 88% 30.37 in 10.0 mi Calm Calm - N/A   Overcast
2:53 AM 51.1 °F 46.9 °F 86% 30.37 in 10.0 mi East 5.8 mph - N/A   Overcast
3:53 AM 50.0 °F 46.0 °F 86% 30.39 in 7.0 mi NE 4.6 mph - N/A   Overcast
4:53 AM 48.9 °F 46.0 °F 90% 30.37 in 6.0 mi ESE 4.6 mph - N/A   Overcast
5:34 AM 48.2 °F 46.4 °F 93% 30.39 in 1.8 mi Calm Calm - N/A   Overcast
5:53 AM 48.9 °F 46.9 °F 93% 30.39 in 1.2 mi Calm Calm - N/A   Overcast
6:53 AM 48.9 °F 46.9 °F 93% 30.40 in 0.8 mi Calm Calm - N/A   Overcast
7:35 AM 48.2 °F 46.4 °F 93% 30.42 in 1.0 mi ENE 3.5 mph - N/A   Overcast
7:53 AM 48.9 °F 46.9 °F 93% 30.42 in 1.5 mi Calm Calm - N/A   Overcast
8:53 AM 50.0 °F 48.0 °F 93% 30.44 in 2.0 mi Calm Calm - N/A   Overcast
9:33 AM 51.8 °F 48.2 °F 88% 30.44 in 3.0 mi ENE 4.6 mph - N/A   Overcast
9:53 AM 51.1 °F 48.9 °F 92% 30.44 in 3.0 mi ENE 4.6 mph - N/A   Overcast
10:53 AM 53.1 °F 50.0 °F 89% 30.44 in 3.0 mi East 4.6 mph - N/A   Overcast
11:01 AM 53.6 °F 50.0 °F 88% 30.43 in 2.5 mi NE 4.6 mph - N/A   Overcast
11:23 AM 53.6 °F 50.0 °F 88% 30.42 in 3.0 mi East 4.6 mph - N/A   Overcast
11:53 AM 54.0 °F 51.1 °F 90% 30.41 in 5.0 mi NE 5.8 mph - N/A   Overcast
12:53 PM 55.9 °F 51.1 °F 84% 30.38 in 10.0 mi East 4.6 mph - N/A   Overcast
1:53 PM 57.9 °F 51.1 °F 78% 30.36 in 10.0 mi ESE 5.8 mph - N/A   Overcast
2:19 PM 57.2 °F 51.8 °F 82% 30.36 in 10.0 mi East 4.6 mph - N/A   Overcast
2:53 PM 57.9 °F 52.0 °F 81% 30.36 in 10.0 mi ENE 3.5 mph - N/A   Overcast
3:53 PM 57.9 °F 52.0 °F 81% 30.35 in 10.0 mi East 3.5 mph - N/A   Overcast
4:53 PM 57.0 °F 52.0 °F 83% 30.36 in 10.0 mi ENE 4.6 mph - N/A   Overcast
5:18 PM 57.2 °F 51.8 °F 82% 30.36 in 10.0 mi Calm Calm - N/A   Overcast
5:53 PM 57.0 °F 52.0 °F 83% 30.36 in 10.0 mi Calm Calm - N/A   Overcast
6:53 PM 57.0 °F 52.0 °F 83% 30.37 in 10.0 mi ENE 3.5 mph - N/A   Overcast
7:53 PM 55.9 °F 52.0 °F 87% 30.38 in 10.0 mi East 4.6 mph - N/A   Overcast
8:29 PM 55.4 °F 53.6 °F 94% 30.37 in 10.0 mi Calm Calm - N/A   Overcast
8:53 PM 55.0 °F 53.1 °F 93% 30.37 in 10.0 mi East 3.5 mph - N/A   Overcast
9:04 PM 55.4 °F 51.8 °F 88% 30.36 in 10.0 mi East 4.6 mph - N/A   Overcast
9:53 PM 55.0 °F 52.0 °F 89% 30.36 in 7.0 mi East 3.5 mph - N/A   Overcast
10:53 PM 55.0 °F 53.1 °F 93% 30.35 in 4.0 mi East 3.5 mph - N/A   Overcast
11:15 PM 53.6 °F 51.8 °F 94% 30.34 in 2.5 mi East 4.6 mph - N/A   Overcast
11:51 PM 53.6 °F 51.8 °F 94% 30.33 in 1.0 mi East 3.5 mph - N/A   Overcast
11:53 PM 54.0 °F 52.0 °F 93% 30.33 in 1.0 mi East 3.5 mph - N/A   Overcast